ARIANE 2 DEB, 28567

Orbit data source: Space-Track

ARIANE 2 DEB, 28567 is space debris in HEO originally from a launch on Fri, 27 Jan 1989 UTC launched from the French Guiana (FRGUI). Debris objects in space refer to the collection of defunct objects orbiting the Earth. Examples of debris include non-operational satellites, rocket bodies, and fragments generated from explosions, collisions, or faulty payload assembly.

Loading next visibility...
Identifier
28567, 1989-006AJ
Orbit
HEO
Country
Flag of FRFR
Related business
Manufacturer
EADS/LV
Mission
Spacecraft
Bus & Motor
Unknown
Mass
Unknown
Launch date (UTC)
1989-01-27 (37 years ago)
Launch vehicle
Unknown
Launch site
French Guiana (FRGUI)
Object type
Payload
Rocket body
Debris
Shape & HBR
Unknown shape, 1.1 m
Radar Cross Section
Medium (>0.1 m² and <1 m²)

Expand to show TLE details & history
Last TLE update: 1 week ago

TLE from 1 week ago
0 ARIANE 2 DEB
1 28567U 89006AJ  26164.59750732  .00002426  00000-0  11997-1 0  9990
2 28567   8.2562 327.5835 7110010 300.5793   8.1587  2.38058086120409
Epoch: 2026-06-13T14:20Z
TLE epoch observation values (Epoch: 2026-06-13T14:20:24.632Z)
Latitude
-0.00058°
Longitude
-149.54343°
Altitude
2,191.797 km
Speed
8.729 km/s
True Right ascension
21h 49m 52s
True Declination
0° 00' 02"
Sunlit
Object was in daylight at epoch
Visualization orbit readout
Latitude
Unknown
Longitude
Unknown
Altitude
Unknown
Speed
Unknown
Apparent Right ascension
Unknown
Apparent Declination
Unknown
Sunlit
N/A
Visualization observer readout
Local Sidereal Time
23:18:18
Azimuth
Unknown
Elevation
Unknown
Doppler factor
Unknown
Orbital elements
Apogee altitude
34,168.862 km
Perigee altitude
470.51 km
Semi-major axis
23,697.823 km
Eccentricity
0.711
Inclination
8.2562°
RAAN
327.5835°
Arg. of periapsis
300.5793°
True anomaly
58.74048°
Mean anomaly
8.1587°
Eccentric anomaly
26.04648°
Mean motion
0.59495 °/min
Orbital period
605.09 mins
BSTAR
0.011997
Loading maneuver chart data...
Computing Atmospheric mass density...
Loading historical data...
Loading historical data...
Loading historical data...
Loading historical data...
Loading historical data...
Loading historical data...
Loading historical data...

Documentation

Showing up to 5 results
|